"Pseudo-MPEC" for C1EKZG2

Created 2019 Nov 11 15:07:06 UT using Find_Orb

Click here for an explanation of pseudo-MPECs

 
 Astrometry: 
     C1EKZG2  C2019 11 05.30019 03 12 08.72 +25 03 16.2    ~B587       VNEOCPG96
     C1EKZG2  C2019 11 05.30528 03 12 08.06 +25 03 29.8    ~B587       VNEOCPG96
     C1EKZG2  C2019 11 05.31036 03 12 07.32 +25 03 42.3    ~B587 21.3 GVNEOCPG96
     C1EKZG2  C2019 11 05.31543 03 12 06.67 +25 03 55.4    ~B587 20.9 GVNEOCPG96
     C1EKZG2  C2019 11 05.43075 03 11 50.67 +25 08 37.8    ~B5Aq 22.1 GVNEOCPI52
     C1EKZG2  C2019 11 05.43576 03 11 49.98 +25 08 50.2    ~B5Aq 22.5 GVNEOCPI52

Station data:
(G96) Mt. Lemmon Survey  (N32.442754 W110.788720)  US/Arizona.  Observers T.
   A. Pruyne, B. M. Africano, E. J. Christensen, G. A. Farneth, D. C. Fuls,
   A. R. Gibbs, A. D. Grauer, H. Gröller, J. A. Johnson, R. A. Kowalski, S.
   M. Larson, G. J. Leonard, D. Rankin, R. L. Seaman, F. C. Shelly. 1.5-m
   reflector + 10K CCD.
(I52) Steward Observatory, Mt. Lemmon Station  (N32.442547 W110.788920)
   US/Arizona.  Observers T. A. Pruyne, B. M. Africano, E. J. Christensen, G.
   A. Farneth, D. C. Fuls, A. R. Gibbs, A. D. Grauer, H. Gröller, J. A.
   Johnson, R. A. Kowalski, S. M. Larson, G. J. Leonard, D. Rankin, R. L.
   Seaman, F. C. Shelly. 1.0-m reflector + CCD.

Orbital elements:  C1EKZG2
   Perihelion 2020 Jan 27.238110 +/- 58.2 TT =  5:42:52 (JD 2458875.738110)
Epoch 2019 Nov  5.0 TT = JDT 2458792.5   Earth MOID: 0.3561   Ma: 0.0024
M 326.28450627 +/- 29               (J2000 ecliptic)          AutoNEOCP
n   0.40504876 +/- 0.21             Peri.   69.78799 +/- 60
a   1.80910805 +/- 0.618            Node    39.70197 +/- 23
e   0.3315234 +/- 0.169             Incl.   20.33524 +/- 9
P   2.43/888.77d           H 22.6   G  0.15   U 11.7  SR
q 1.20934638 +/- 0.279    Q 2.40886972 +/- 1.5
From 6 observations 2019 Nov. 5 (3.3 hr); mean residual 0".38
Residuals in arcseconds: 
191105 G96  .40-  .84-    191105 G96  .26-  .10+    191105 I52  .01-  .13-    
191105 G96  .22+  .16+    191105 G96  .47+  .67+    191105 I52  .03-  .04+    

Ephemerides (geocentric):
Date (UTC) HH   RA              Dec         delta   r     elong  mag " sig PA
---- -- -- --  -------------   -----------  ------ ------ -----  --- ---- ---
2019 11 11 15  02 56 43.325   +29 31 20.57  .39632 1.3799 167.7 21.9  22d 166
2019 11 11 16  02 56 36.598   +29 33 08.49  .39619 1.3797 167.7 21.9  22d 166
2019 11 11 17  02 56 29.863   +29 34 56.42  .39607 1.3795 167.7 21.9  22d 165
2019 11 11 18  02 56 23.121   +29 36 44.37  .39595 1.3794 167.6 21.9  22d 165
2019 11 11 19  02 56 16.370   +29 38 32.32  .39582 1.3792 167.6 21.9  22d 165
2019 11 11 20  02 56 09.612   +29 40 20.28  .39570 1.3790 167.6 21.9  22d 165
2019 11 11 21  02 56 02.847   +29 42 08.25  .39558 1.3789 167.5 21.9  22d 165
2019 11 11 22  02 55 56.073   +29 43 56.23  .39546 1.3787 167.5 21.9  22d 165
2019 11 11 23  02 55 49.292   +29 45 44.22  .39534 1.3786 167.5 21.9  22d 165
2019 11 12 00  02 55 42.504   +29 47 32.22  .39522 1.3784 167.4 21.9  22d 165
2019 11 12 01  02 55 35.708   +29 49 20.22  .39510 1.3782 167.4 21.9  22d 164
2019 11 12 02  02 55 28.904   +29 51 08.24  .39498 1.3781 167.4 21.9  22d 164
2019 11 12 03  02 55 22.092   +29 52 56.26  .39486 1.3779 167.4 21.9  22d 164
2019 11 12 04  02 55 15.273   +29 54 44.28  .39474 1.3778 167.3 21.9  22d 164
2019 11 12 05  02 55 08.447   +29 56 32.31  .39462 1.3776 167.3 21.9  22d 164
2019 11 12 06  02 55 01.613   +29 58 20.35  .39450 1.3774 167.3 21.9  22d 164
2019 11 12 07  02 54 54.771   +30 00 08.40  .39439 1.3773 167.2 21.9  22d 164
2019 11 12 08  02 54 47.922   +30 01 56.45  .39427 1.3771 167.2 21.9  22d 164
2019 11 12 09  02 54 41.065   +30 03 44.50  .39415 1.3769 167.2 21.9  22d 164
2019 11 12 10  02 54 34.201   +30 05 32.56  .39404 1.3768 167.1 21.9  22d 164
2019 11 12 11  02 54 27.329   +30 07 20.63  .39392 1.3766 167.1 21.9  22d 164
2019 11 12 12  02 54 20.450   +30 09 08.70  .39381 1.3765 167.1 21.9  22d 164
2019 11 12 13  02 54 13.564   +30 10 56.77  .39369 1.3763 167.0 21.9  22d 163
2019 11 12 14  02 54 06.670   +30 12 44.84  .39358 1.3761 167.0 21.9  22d 163
2019 11 12 15  02 53 59.768   +30 14 32.92  .39346 1.3760 167.0 21.9  22d 163
2019 11 12 16  02 53 52.859   +30 16 21.01  .39335 1.3758 166.9 21.9  22d 163
2019 11 12 17  02 53 45.943   +30 18 09.09  .39323 1.3757 166.9 21.9  22d 163
2019 11 12 18  02 53 39.019   +30 19 57.18  .39312 1.3755 166.9 21.9  22d 163
2019 11 12 19  02 53 32.089   +30 21 45.27  .39301 1.3753 166.8 21.9  22d 163
2019 11 12 20  02 53 25.150   +30 23 33.36  .39290 1.3752 166.8 21.9  22d 163
2019 11 12 21  02 53 18.205   +30 25 21.45  .39279 1.3750 166.7 21.9  22d 163
2019 11 12 22  02 53 11.252   +30 27 09.54  .39267 1.3749 166.7 21.9  22d 163
2019 11 12 23  02 53 04.291   +30 28 57.63  .39256 1.3747 166.7 21.9  22d 163
2019 11 13 00  02 52 57.324   +30 30 45.73  .39245 1.3745 166.6 21.9  22d 163
2019 11 13 01  02 52 50.349   +30 32 33.82  .39234 1.3744 166.6 21.9  22d 163
2019 11 13 02  02 52 43.367   +30 34 21.91  .39223 1.3742 166.6 21.9  22d 163
2019 11 13 03  02 52 36.377   +30 36 10.01  .39212 1.3741 166.5 21.9  22d 163
2019 11 13 04  02 52 29.381   +30 37 58.10  .39202 1.3739 166.5 21.9  22d 163
2019 11 13 05  02 52 22.377   +30 39 46.19  .39191 1.3737 166.4 21.9  22d 163
2019 11 13 06  02 52 15.366   +30 41 34.27  .39180 1.3736 166.4 21.9  22d 162
2019 11 13 07  02 52 08.348   +30 43 22.36  .39169 1.3734 166.4 21.9  22d 162
2019 11 13 08  02 52 01.323   +30 45 10.44  .39159 1.3733 166.3 21.9  22d 162
2019 11 13 09  02 51 54.290   +30 46 58.52  .39148 1.3731 166.3 21.9  22d 162
2019 11 13 10  02 51 47.250   +30 48 46.60  .39137 1.3729 166.3 21.9  22d 162
2019 11 13 11  02 51 40.204   +30 50 34.67  .39127 1.3728 166.2 21.9  22d 162
2019 11 13 12  02 51 33.150   +30 52 22.74  .39116 1.3726 166.2 21.9  22d 162
2019 11 13 13  02 51 26.089   +30 54 10.81  .39106 1.3725 166.1 21.9  22d 162
2019 11 13 14  02 51 19.021   +30 55 58.87  .39095 1.3723 166.1 21.9  22d 162